www.pogodaiklimat.ru

Погода и климат >> Архив погоды >> Россия >> Кемеровская область >> Кемерово


АРХИВ ПОГОДЫ в Кемерово

Время (UTC), дата Ветер
(напр.,м/с)
 
Видим.   Явления Облачность Т
(С)
Тd
(С)
f
(%)
Тe
(С)
Тes
(С)
Комфортность P
(гПа)
Po
(гПа)
Тmin
(С)
Tmax
(С)
R
(мм)
R24
(мм)
S
(см)
00 18.08 С 1 50 м туман ясно +12.2 +11.9 98 +12 +12 по сезону 1013.3 995.6 +11.9
03 18.08 С 1 4000 м дымка {туман} ясно +18.8 +16.7 88 +21 +29 комфорт 1013.1 995.8
06 18.08 СВ 2 10 км {туман} 6/3 600 м
[Cu hum Ci fib]
+24.9 +13.3 48 +27 +34 жарко 1012.1 995.2
09 18.08 СВ 3 10 км 10/3 600 м
[Cu hum Ci fib]
+25.1 +12.0 44 +27 +30 жарко 1011.5 994.6
12 18.08 С 1 10 км 4/0
[Ci fib]
+23.9 +12.1 48 +26 +27 жарко 1012.5 995.5 +25.4
15 18.08 З 1 10 км 10/0
[Ci fib]
+15.4 +13.9 91 +16 +16 по сезону 1014.5 997.0
18 18.08 штиль 0 10 км 10/0
[Ci]
+13.5 +12.9 96 +13 +13 по сезону 1015.1 997.5
21 18.08 штиль 0 4000 м дымка 10/0
[Ci fib]
+12.4 +12.0 97 +12 +12 по сезону 1015.4 997.7
00 19.08 Ю 1 1000 м дымка 10/4
[Sc Ac trans Cc]
+12.4 +12.1 98 +12 +12 по сезону 1016.1 998.4 +11.4
03 19.08 Ю 2 4000 м дымка 8/6 600 м
[Sc Ci fib]
+16.7 +15.1 90 +17 +19 тепло 1016.0 998.5
06 19.08 Ю 2 10 км 10/10 600 м
[Sc]
+22.4 +15.0 63 +26 +26 жарко 1015.2 998.1
09 19.08 З 4-10
{10}
10 км 10/9 600 м
[Sc Ci fib]
+23.3 +13.2 53 +26 +27 жарко 1014.2 997.2
12 19.08 ЮВ 1
{10}
10 км в посл. час ливневой дождь {гроза} 10/10 600 м
[Cb cap]
+17.7 +16.3 92 +19 +19 по сезону 1015.1 997.7 +24.4 0.4
15 19.08 Ю 2 10 км {ливн. осадки} 10/10 600 м
[Cb cap]
+15.9 +15.4 97 +16 +16 по сезону 1015.4 997.9
18 19.08 Ю 1 10 км в посл. час ливневой дождь 10/10 600 м
[Cb cap]
+15.8 +15.4 97 +16 +16 тепло 1014.7 997.2
21 19.08 СЗ 3 10 км 10/10 600 м
[Sc]
+15.2 +14.6 96 +14 +14 тепло 1014.3 996.8
00 20.08 С 2 20 км 10/10 600 м
[Sc]
+14.6 +13.8 95 +14 +14 тепло 1014.5 996.9 +14.5 3
03 20.08 С 2 20 км 10/9 600 м
[Sc Ci fib]
+16.1 +13.9 87 +16 +17 по сезону 1014.4 997.0
06 20.08 С 2 20 км 10/8 600 м
[Cu Sc Ci sp]
+18.4 +11.7 65 +19 +21 по сезону 1014.5 997.2
09 20.08 СЗ 1 20 км 8/6 600 м
[Cu med, cong Ci fib]
+20.1 +9.8 51 +23 +26 комфорт 1014.1 996.9
12 20.08 СЗ 3 10 км гроза, ливневой дождь 8/8 600 м
[Cb cap]
+13.5 +11.4 87 +12 +12 очень
холодно
1015.8 998.1 +20.4 0.0
15 20.08 ЮЗ 1 10 км {гроза, ливн. осадки} 4/3 600 м
[Sc Ci fib]
+12.3 +11.9 97 +12 +12 прохладно 1016.0 998.3
18 20.08 штиль 0 10 км {гроза, ливн. осадки} 3/0
[Ci fib]
+9.3 +8.9 97 +8 +8 прохладно 1016.0 998.1
21 20.08 штиль 0 1000 м дымка 1/0
[Ci fib]
+10.0 +9.7 98 +9 +9 по сезону 1014.8 997.0
00 21.08 ЮВ 1 10 км гроза без осадков {туман} 8/8 600 м
[Cb cap]
+10.9 +10.6 98 +10 +11 по сезону 1013.7 995.9 +9.3 17
03 21.08 Ю 2 50 км {гроза} 9/9 600 м
[Sc]
+14.3 +12.5 89 +14 +14 по сезону 1013.6 996.0
06 21.08 Ю 4 50 км {гроза} 10/10 600 м
[Sc]
+15.4 +10.9 75 +14 +14 холодно 1013.1 995.6
09 21.08 ЮЗ 4 50 км {ливн. осадки} 10/6 600 м
[Sc Ac trans Ci fib]
+17.4 +7.5 52 +17 +18 прохладно 1012.4 995.0
12 21.08 СЗ 1
{10}
50 км {ливн. осадки} 9/9 600 м
[Sc]
+16.7 +9.3 62 +18 +18 по сезону 1012.2 994.8 +18.9 0.0
15 21.08 ЮВ 2 20 км 9/6 600 м
[Sc Ac trans Ci fib]
+12.7 +11.9 95 +12 +12 прохладно 1013.3 995.6
18 21.08 штиль 0 4000 м дымка 6/4 300 м
[Sc Ac trans]
+9.8 +9.3 97 +9 +9 прохладно 1012.7 994.9
21 21.08 штиль 0 500 м туман ясно +8.7 +8.4 98 +8 +8 прохладно 1012.0 994.1
00 22.08 штиль 0 50 м туман 10/0
[Ci fib]
+8.6 +8.3 98 +8 +8 по сезону 1011.6 993.7 +8.1
03 22.08 СЗ 1 500 м туман 8/0
[Ci fib]
+12.0 +11.9 99 +12 +18 по сезону 1010.5 992.9
06 22.08 С 1 20 км {туман} 10/8 600 м
[Sc Ci fib]
+18.4 +10.6 60 +20 +22 тепло 1008.9 991.6
09 22.08 С 2 10 км слаб. ливневой дождь 10/10 600 м
[Cb cap]
+17.4 +9.8 61 +18 +18 по сезону 1008.1 990.8
12 22.08 СВ 1 20 км {ливн. осадки} 9/9 600 м
[Sc]
+18.8 +10.5 59 +21 +21 комфорт 1007.4 990.2 +19.7 0.3
15 22.08 штиль 0 20 км 10/10 600 м
[Sc]
+14.5 +12.7 89 +14 +14 по сезону 1006.8 989.4
18 22.08 СЗ 1 20 км 10/10 600 м
[Sc]
+13.8 +12.4 91 +14 +14 тепло 1006.0 988.6
21 22.08 С 2 20 км 10/10 600 м
[Sc]
+13.6 +11.8 89 +13 +13 тепло 1004.9 987.4
00 23.08 СЗ 2 20 км 10/10 600 м
[Sc]
+13.2 +11.8 91 +12 +12 тепло 1005.2 987.7 +13.0
03 23.08 СЗ 3 4000 м дымка 10/10
[Sc]
+13.4 +11.9 91 +12 +12 по сезону 1006.2 988.7 +12.9
06 23.08 СЗ 4 20 км 10/8 600 м
[Cb cap Ci sp]
+16.8 +11.2 70 +16 +17 прохладно 1007.1 989.8
09 23.08 СЗ 4 20 км 10/9 600 м
[Cb cap Ci sp]
+16.5 +10.2 66 +16 +16 прохладно 1009.2 991.8
12 23.08 З 3 20 км 10/10 300 м
[Cb cap]
+16.8 +10.9 68 +17 +17 по сезону 1010.5 993.1 +17.9
15 23.08 З 2 10 км слаб. ливневой дождь 10/10 600 м
[Cb cap]
+13.3 +12.4 94 +12 +12 прохладно 1012.3 994.7
18 23.08 СЗ 2 10 км слаб. ливневой дождь 10/10 600 м
[Cb cap]
+13.0 +12.4 96 +12 +12 по сезону 1012.5 994.9
21 23.08 З 1 10 км слаб. ливневой дождь 10/10 600 м
[Cb cap]
+12.7 +12.0 96 +13 +13 тепло 1012.6 995.0
00 24.08 ЮЗ 1 10 км слаб. ливневой дождь 10/9 600 м
[Cb cap Ci sp]
+13.0 +12.4 96 +13 +13 тепло 1013.3 995.7 +12.7 10
03 24.08 З 2 20 км {ливн. осадки} 8/5 600 м
[Sc Ac trans Ci fib]
+14.6 +13.0 90 +14 +16 по сезону 1014.6 997.0
06 24.08 З 3 20 км {ливн. осадки} 8/8 600 м
[Cb cap]
+20.2 +13.2 64 +23 +24 комфорт 1014.1 996.8
09 24.08 З 4 20 км 8/8 600 м
[Cu med, cong]
+22.2 +11.0 49 +24 +25 комфорт 1013.7 996.6
12 24.08 З 2 20 км 5/4 600 м
[Cu med, cong Ci fib]
+21.5 +11.3 52 +23 +24 комфорт 1014.1 996.9 +22.7 0.0
15 24.08 ЮЗ 2 10 км 9/5 600 м
[Sc Ci fib]
+17.3 +12.5 73 +18 +18 тепло 1015.1 997.7
18 24.08 Ю 2 10 км в посл. час ливневой дождь 10/8 600 м
[Cb cap Ci fib]
+14.8 +13.3 91 +14 +14 тепло 1014.9 997.3
21 24.08 Ю 2 10 км 9/8 600 м
[Sc Ci fib]
+15.4 +13.3 87 +15 +15 тепло 1013.7 996.2

 

Местоположение метеостанции Кемерово (Кемеровская область, Россия): широта 55.25 долгота 86.22 высота над уровнем моря 148 м.

В архиве по умолчанию представлена погода в Кемерово за последнюю неделю. Архивные данные за месяц целиком и за предыдущие месяцы, начиная с января 2011 года, Вы можете получить, выбрав интересующий диапазон дат из раскрывающегося списка и нажав кнопку "Ввод!".


*Определитесь, кто Вы:
робот инопланетянин человек

Внимание! Время в таблицах - всемирное. Для получения местного времени необходимо прибавить поправку, которая равна 7 ч.

Смотрите также архив погоды в соседних городах и на ближайших метеорологических станциях:

Погода в Кемерово АМС (Кемеровская область, Россия) (17 км)
Погода в Топках (Кемеровская область, Россия) (39 км)
Погода в Крапивино (Кемеровская область, Россия) (47 км)
Погода в Барзасе (Кемеровская область, Россия) (50 км)
Погода в Промышленной (Кемеровская область, Россия) (55 км)
Погода в Ленинск-Кузнецком (Кемеровская область, Россия) (59 км)
Погода в Красном (Кемеровская область, Россия) (89 км)
Погода в Белово (Кемеровская область, Россия) (89 км)
Погода в Центральном Руднике (Кемеровская область, Россия) (91 км)
Погода в Тайге (Кемеровская область, Россия) (99 км)

Пояснения к столбцам:

Ветер - указаны скорость ветра в м/с - средняя за 10 мин, порывы в срок и между сроками (в фигурных скобках) и направление, откуда дует ветер: С - северный, СВ - северо-восточный, В - восточный, ЮВ - юго-восточный, Ю - южный, ЮЗ - юго-западный, З - западный, СЗ - северо-западный.
Видимость - горизонтальная дальность видимости в метрах или километрах. При видимости от 1 до 10 км при отсутствии осадков обычно наблюдается дымка, при ухудшении видимости до 1 км и менее - туман. В сухую погоду видимость может ухудшаться дымом, пылью или мглою.
Явления - указаны атмосферные явления, наблюдавшиеся в срок или в последний час перед сроком; фигурными скобками обозначены явления, наблюдавшиеся между сроками (за 1-3 часа до срока); квадратными скобками обозначены град или гололедные отложения с указанием их диаметра в мм.
Облачность - указаны через наклонную черту общая и нижняя облачность в баллах и высота нижней границы облаков в метрах; квадратными скобками обозначены формы облаков: Ci - перистые, Cs - перисто-слоистые, Cc - перисто-кучевые, Ac - высококучевые, As - высокослоистые, Sc - слоисто-кучевые, Ns - слоисто-дождевые, Cu - кучевые, Cb - кучево-дождевые. Подробнее классификацию облаков см. в Атласе облаков (PDF).
T - Температура воздуха - температура, измеренная на высоте 2 м над землей.
Td - Температура точки росы - температура, при понижении до которой содержащийся в воздухе водяной пар достигнет насыщения.
f - Относительная влажность воздуха - влажноcть воздуха, измеренная на высоте 2 м над землей.
Te - Эффективная температура - температура, которую ощущает одетый по сезону человек в тени. Характеристика душности погоды. При расчете учитывается влияние влажности воздуха и скорости ветра на теплоощущения человека.
Tes - Эффективная температура на солнце - температура, которую ощущает человек, с поправкой на солнечный нагрев. Характеристика знойности погоды. Зависит от высоты солнца над горизонтом, облачности и скорости ветра. Ночью, в пасмурную погоду, а также при ветре 12 м/с и более поправка равна нулю.
P - Атмосферное давление - приведенное к уровню моря атмосферное давление.
Po - Атмосферное давление - измеренное на уровне метеостанции атмосферное давление.
Tmin - Минимальная температура - минимум температуры воздуха на высоте 2 м над землей.
Tmax - Максимальная температура - максимум температуры воздуха на высоте 2 м над землей.
R - Количество осадков - Количество выпавших осадков за период времени, мм. При наведении курсора мыши на число - период времени, за который выпало указанное количество осадков.
R24 - Количество осадков - Количество выпавших осадков за 24 часа, мм.
S - Снежный покров - Высота снежного покрова, см. При наведении курсора мыши на число - состояние снежного покрова и степень покрытия местности в баллах.